User: anonymous   Login
Location: Dampvalley
(47.9094°N, 6.1967°E)
Time: 00:16:21
(UTC+00:00)
Language:

ADEOS II - Orbit

View from above orbital plane
View from above orbital plane
View from above satellite
View from above satellite

Ground track
Ground track

The orbit data is extracted from the following two-line orbital elements,

1 27597U 02056A   21138.44538295  .00000049  00000-0  37537-4 0  9990
2 27597  98.5626  84.3615 0002166  86.2550 273.8878 14.27499105959600
Epoch (UTC): 18 May 2021 10:41:21
Eccentricity: 0.0002166
inclination: 98.5626°
perigee height: 798 km
apogee height: 801 km
right ascension of ascending node: 84.3615°
argument of perigee: 86.2550°
revolutions per day: 14.27499105
mean anomaly at epoch: 273.8878°
orbit number at epoch: 95960

The dashed part of the orbit path shows where the satellite is in the earth's shadow,  

DLR